SCISAT 1

Last updated on Thu Apr 09 2026 00:03:38 GMT+0000 (Coordinated Universal Time)

1 27858U 03036A 26098.60075980 .00000580 00000+0 78879-4 0 9997 2 27858 73.9294 309.5967 0006617 20.7021 339.4422 14.81368559221144
UTC large
Height (km)
Speed (km/s)
/
Latitude / Longitude
Inclination (degrees)
Orbital Period (minutes)
Azimuth
Elevation
Range (km)
Doppler Factor

Next 0 passes for location: London (51.5072 / 0.1276)

Sorry there are no passes over London.